Florala, AL

7:52 PM CST on February 24, 2017 (GMT -0600)
Florala

Weather History for K0J4 - May, 2013

Change the Weather History Date:

Wednesday, May 8, 2013

  Actual Average (KCEW) Record (KCEW)
Temperature  
Mean Temperature 68 °F -  
Max Temperature 82 °F 82 °F 93 °F (1949)
Min Temperature 54 °F 58 °F 39 °F (2007)
Cooling Degree Days 3    
Growing Degree Days 18 (Base 50)    
Moisture  
Dew Point 56 °F    
Average Humidity 67    
Maximum Humidity 93    
Minimum Humidity 40    
Precipitation  
Precipitation 0.00 in - - ()
Sea Level Pressure  
Sea Level Pressure 30.08 in    
Wind  
Wind Speed 1 mph (SW)    
Max Wind Speed 7 mph    
Max Gust Speed -    
Visibility 10 miles    
Events      
Averages and records for this station are not official NWS values.
T = Trace of Precipitation, MM = Missing Value Source: NWS Daily Summary

Daily Weather History Graph

Daily Weather History Graph

Search for Another Location

Airport or City:

Trip Planner

Search our weather history database for the weather conditions in past years. The results will help you decide how hot, cold, wet, or windy it might be!

Date:

Astronomy

May. 08, 2013 Rise Set
Actual Time 5:54 AM CDT 7:29 PM CDT
Civil Twilight 5:28 AM CDT 7:55 PM CDT
Nautical Twilight 4:57 AM CDT 8:26 PM CDT
Astronomical Twilight 4:24 AM CDT 8:59 PM CDT
Moon 4:57 AM CDT (5/8) 6:29 PM CDT (5/8)
Length of Visible Light 14h 26m
Length of Day
13h 34m
Waning Crescent, 2% of the Moon is Illuminated
May 8
Waning Crescent
May 9
New
May 17
First Quarter
May 24
Full
May 31
Last Quarter

Hourly Weather History & Observations

Time (CDT) Temp. Heat Index Dew Point Humidity Pressure Visibility Wind Dir Wind Speed Gust Speed Precip Events Conditions
12:58 AM 59.0 °F - 55.9 °F 90% 30.05 in 10.0 mi Calm Calm - N/A   Partly Cloudy
1:58 AM 57.0 °F - 54.0 °F 89% 30.03 in 10.0 mi Calm Calm - N/A   Clear
2:58 AM 55.9 °F - 53.1 °F 90% 30.03 in 10.0 mi Calm Calm - N/A   Clear
3:58 AM 55.9 °F - 54.0 °F 93% 30.03 in 10.0 mi Calm Calm - N/A   Clear
4:58 AM 55.0 °F - 52.0 °F 89% 30.04 in 9.0 mi Calm Calm - N/A   Clear
5:58 AM 54.0 °F - 51.1 °F 90% 30.07 in 9.0 mi Calm Calm - N/A   Clear
6:58 AM 57.9 °F - 55.9 °F 93% 30.09 in 7.0 mi Calm Calm - N/A   Clear
7:58 AM 66.9 °F - 59.0 °F 76% 30.10 in 10.0 mi Calm Calm - N/A   Clear
8:58 AM 71.1 °F - 57.9 °F 63% 30.11 in 10.0 mi Variable 4.6 mph - N/A   Clear
9:58 AM 75.0 °F - 57.0 °F 53% 30.12 in 10.0 mi North 4.6 mph - N/A   Clear
10:58 AM 75.9 °F - 53.1 °F 45% 30.12 in 10.0 mi Variable 3.5 mph - N/A   Scattered Clouds
11:58 AM 75.9 °F - 55.0 °F 48% 30.11 in 10.0 mi Variable 4.6 mph - N/A   Mostly Cloudy
12:58 PM 80.1 °F 80.0 °F 54.0 °F 40% 30.10 in 10.0 mi SSW 5.8 mph - N/A   Overcast
1:58 PM 78.1 °F - 54.0 °F 43% 30.09 in 10.0 mi Calm Calm - N/A   Mostly Cloudy
2:58 PM 80.1 °F 80.1 °F 55.0 °F 42% 30.08 in 10.0 mi North 3.5 mph - N/A   Overcast
3:58 PM 82.0 °F 81.6 °F 55.9 °F 41% 30.06 in 10.0 mi Calm Calm - N/A   Scattered Clouds
4:58 PM 81.0 °F 80.7 °F 55.0 °F 41% 30.06 in 10.0 mi Calm Calm - N/A   Mostly Cloudy
5:58 PM 79.0 °F - 55.0 °F 44% 30.06 in 10.0 mi SSW 3.5 mph - N/A   Partly Cloudy
6:58 PM 75.0 °F - 60.1 °F 60% 30.06 in 10.0 mi SSW 6.9 mph - N/A   Mostly Cloudy
7:58 PM 71.1 °F - 62.1 °F 73% 30.08 in 10.0 mi SSW 4.6 mph - N/A   Mostly Cloudy
8:58 PM 68.0 °F - 62.1 °F 81% 30.09 in 10.0 mi SW 4.6 mph - N/A   Clear
9:58 PM 66.9 °F - 61.0 °F 81% 30.12 in 10.0 mi Calm Calm - N/A   Clear
10:58 PM 64.9 °F - 61.0 °F 87% 30.12 in 10.0 mi SW 3.5 mph - N/A   Clear